Date String (YYYY-MM-DD hh:mm:ss) UTC,Instrument flags,Ambient pressure (hPa),Sample flow (lpm),Bypass flow (lpm),Sample temperature (°C),Ambient temperature (°C),ASC tube jacket temperature (°C),LED temperature (°C),Box temperature (°C),Sample RH (%),Span deviation,Mass concentration (μg/m³),Mass concentration (μg/m³),Mass concentration (μg/m³)
DateTimeUTC,F1_M11,P_M11,Q1_M11,Q2_M11,T1_M11,T2_M11,T3_M11,T4_M11,T5_M11,U1_M11,ZSPAN_M11,X0_M11,X2_M11,X1_M11
2022-01-29 06:00:00,,0830.7,5.00,0.00,22.6,22.1,00.0,31.5,24.4,04.1,0000.0,0000.91,0000.62,0000.52
2022-01-29 06:01:00,,0830.8,4.99,0.00,22.6,22.1,00.0,31.5,24.5,04.4,0000.0,0000.98,0000.65,0000.54
2022-01-29 06:02:00,,0830.7,5.00,0.00,22.7,22.1,00.0,31.5,24.5,04.4,0000.0,0001.01,0000.67,0000.55
2022-01-29 06:03:00,,0830.7,5.01,0.00,22.7,22.1,00.0,31.5,24.5,04.3,0000.0,0001.02,0000.68,0000.56
2022-01-29 06:04:00,,0830.7,5.01,0.00,22.7,22.1,00.0,31.6,24.5,04.1,0000.0,0001.08,0000.70,0000.58
2022-01-29 06:05:00,,0830.7,4.98,0.00,22.7,22.1,00.0,31.6,24.5,03.8,0000.0,0001.07,0000.70,0000.58
2022-01-29 06:06:00,,0830.7,5.01,0.00,22.7,22.1,00.0,31.6,24.6,03.6,0000.0,0001.06,0000.70,0000.57
2022-01-29 06:07:00,,0830.7,5.00,0.00,22.8,22.1,00.0,31.6,24.6,04.0,0000.0,0001.06,0000.70,0000.57
2022-01-29 06:08:00,,0830.7,4.99,0.00,22.8,22.1,00.0,31.6,24.6,03.9,0000.0,0001.02,0000.69,0000.58
2022-01-29 06:09:00,,0830.7,5.00,0.00,22.8,22.2,00.0,31.6,24.6,03.8,0000.0,0000.93,0000.66,0000.58
2022-01-29 06:10:00,,0830.7,5.01,0.00,22.8,22.2,00.0,31.6,24.6,03.8,0000.0,0000.94,0000.66,0000.57
2022-01-29 06:11:00,,0830.7,5.01,0.00,22.8,22.2,00.0,31.6,24.6,03.8,0000.0,0000.95,0000.66,0000.57
2022-01-29 06:12:00,,0830.7,5.00,0.00,22.8,22.2,00.0,31.7,24.6,03.8,0000.0,0000.80,0000.62,0000.56
2022-01-29 06:13:00,,0830.6,5.00,0.00,22.8,22.2,00.0,31.7,24.6,03.8,0000.0,0000.75,0000.59,0000.54
2022-01-29 06:14:00,,0830.7,5.01,0.00,22.8,22.2,00.0,31.7,24.6,03.8,0000.0,0000.82,0000.59,0000.52
2022-01-29 06:15:00,,0830.6,5.00,0.00,22.8,22.2,00.0,31.7,24.6,03.8,0000.0,0000.80,0000.57,0000.51
2022-01-29 06:16:00,,0830.6,5.00,0.00,22.8,22.2,00.0,31.7,24.6,03.8,0000.0,0000.79,0000.56,0000.51
2022-01-29 06:17:00,,0830.6,4.98,0.00,22.8,22.2,00.0,31.7,24.6,03.8,0000.0,0000.93,0000.58,0000.52
2022-01-29 06:18:00,,0830.6,5.01,0.00,22.8,22.2,00.0,31.7,24.6,03.8,0000.0,0001.51,0000.59,0000.52
2022-01-29 06:19:00,,0830.6,5.01,0.00,22.8,22.2,00.0,31.7,24.6,03.9,0000.0,0001.52,0000.59,0000.52
2022-01-29 06:20:00,,0830.6,5.01,0.00,22.8,22.2,00.0,31.7,24.6,04.0,0000.0,0001.55,0000.60,0000.51
2022-01-29 06:21:00,,0830.5,5.00,0.00,22.8,22.2,00.0,31.7,24.6,04.1,0000.0,0001.55,0000.60,0000.52
2022-01-29 06:22:00,,0830.6,4.99,0.00,22.8,22.2,00.0,31.7,24.6,04.1,0000.0,0001.54,0000.61,0000.53
2022-01-29 06:23:00,,0830.5,4.99,0.00,22.8,22.2,00.0,31.7,24.6,04.2,0000.0,0001.56,0000.62,0000.54
2022-01-29 06:24:00,,0830.5,5.00,0.00,22.8,22.2,00.0,31.7,24.6,04.0,0000.0,0001.59,0000.63,0000.54
2022-01-29 06:25:00,,0830.6,5.01,0.00,22.8,22.2,00.0,31.7,24.6,03.9,0000.0,0001.52,0000.62,0000.54
2022-01-29 06:26:00,,0830.6,5.01,0.00,22.8,22.2,00.0,31.7,24.6,04.0,0000.0,0001.50,0000.62,0000.54
2022-01-29 06:27:00,,0830.6,5.00,0.00,22.8,22.2,00.0,31.7,24.6,04.0,0000.0,0001.49,0000.62,0000.55
2022-01-29 06:28:00,,0830.6,4.99,0.00,22.8,22.2,00.0,31.7,24.6,03.9,0000.0,0001.42,0000.61,0000.54
2022-01-29 06:29:00,,0830.6,5.00,0.00,22.8,22.2,00.0,31.7,24.6,03.9,0000.0,0000.81,0000.60,0000.54
2022-01-29 06:30:00,,0830.6,5.00,0.00,22.8,22.2,00.0,31.7,24.6,03.7,0000.0,0000.85,0000.61,0000.54
2022-01-29 06:31:00,,0830.6,5.00,0.00,22.8,22.2,00.0,31.8,24.6,03.7,0000.0,0000.85,0000.61,0000.54
2022-01-29 06:32:00,,0830.6,5.01,0.00,22.8,22.2,00.0,31.7,24.6,03.6,0000.0,0000.86,0000.61,0000.53
2022-01-29 06:33:00,,0830.6,5.01,0.00,22.8,22.2,00.0,31.7,24.6,03.6,0000.0,0000.84,0000.59,0000.52
2022-01-29 06:34:00,,0830.6,5.00,0.00,22.8,22.2,00.0,31.8,24.6,03.6,0000.0,0000.82,0000.58,0000.51
2022-01-29 06:35:00,,0830.6,4.99,0.00,22.8,22.2,00.0,31.8,24.6,03.6,0000.0,0000.83,0000.57,0000.50
2022-01-29 06:36:00,,0830.6,5.01,0.00,22.8,22.2,00.0,31.8,24.6,03.6,0000.0,0000.81,0000.57,0000.50
2022-01-29 06:37:00,,0830.6,5.00,0.00,22.8,22.2,00.0,31.8,24.6,03.5,0000.0,0000.79,0000.55,0000.49
2022-01-29 06:38:00,,0830.5,5.01,0.00,22.8,22.2,00.0,31.8,24.6,03.5,0000.0,0000.77,0000.54,0000.47
2022-01-29 06:39:00,,0830.6,4.98,0.00,22.8,22.1,00.0,31.8,24.6,03.5,0000.0,0000.76,0000.53,0000.46
2022-01-29 06:40:00,,0830.6,5.00,0.00,22.8,22.1,00.0,31.8,24.6,03.5,0000.0,0000.77,0000.53,0000.46
2022-01-29 06:41:00,,0830.6,5.01,0.00,22.8,22.1,00.0,31.8,24.6,03.5,0000.0,0000.70,0000.51,0000.45
2022-01-29 06:42:00,,0830.6,4.99,0.00,22.8,22.1,00.0,31.8,24.6,03.5,0000.0,0000.67,0000.50,0000.44
2022-01-29 06:43:00,,0830.6,5.01,0.00,22.8,22.1,00.0,31.8,24.6,03.5,0000.0,0000.71,0000.51,0000.45
2022-01-29 06:44:00,,0830.6,4.99,0.00,22.8,22.1,00.0,31.7,24.6,03.6,0000.0,0000.78,0000.53,0000.45
2022-01-29 06:45:00,,0830.7,5.01,0.00,22.8,22.1,00.0,31.7,24.5,03.6,0000.0,0000.80,0000.54,0000.45
2022-01-29 06:46:00,,0830.7,5.00,0.00,22.7,22.1,00.0,31.7,24.5,03.6,0000.0,0000.78,0000.54,0000.45
2022-01-29 06:47:00,,0830.7,5.01,0.00,22.7,22.1,00.0,31.7,24.5,03.6,0000.0,0000.81,0000.55,0000.46
2022-01-29 06:48:00,,0830.7,5.00,0.00,22.7,22.1,00.0,31.7,24.5,03.6,0000.0,0000.82,0000.56,0000.46
2022-01-29 06:49:00,,0830.7,5.00,0.00,22.7,22.1,00.0,31.7,24.5,03.6,0000.0,0000.82,0000.56,0000.47
2022-01-29 06:50:00,,0830.7,4.99,0.00,22.7,22.0,00.0,31.7,24.5,03.7,0000.0,0000.80,0000.56,0000.47
2022-01-29 06:51:00,,0830.7,5.00,0.00,22.7,22.1,00.0,31.7,24.5,03.7,0000.0,0000.78,0000.56,0000.48
2022-01-29 06:52:00,,0830.7,5.01,0.00,22.7,22.1,00.0,31.7,24.5,03.7,0000.0,0000.80,0000.56,0000.48
2022-01-29 06:53:00,,0830.7,5.01,0.00,22.7,22.1,00.0,31.7,24.5,03.7,0000.0,0000.81,0000.56,0000.48
2022-01-29 06:54:00,,0830.7,4.99,0.00,22.7,22.1,00.0,31.7,24.6,03.7,0000.0,0000.78,0000.56,0000.48
2022-01-29 06:55:00,,0830.7,5.00,0.00,22.7,22.1,00.0,31.7,24.6,03.6,0000.0,0000.74,0000.55,0000.47
2022-01-29 06:56:00,,0830.6,5.00,0.00,22.7,22.1,00.0,31.7,24.6,03.7,0000.0,0000.71,0000.54,0000.47
2022-01-29 06:57:00,,0830.6,5.00,0.00,22.8,22.1,00.0,31.7,24.6,03.7,0000.0,0000.70,0000.53,0000.47
2022-01-29 06:58:00,,0830.6,5.00,0.00,22.7,22.1,00.0,31.7,24.5,03.7,0000.0,0000.65,0000.51,0000.47
2022-01-29 06:59:00,,0830.6,5.01,0.00,22.7,22.1,00.0,31.7,24.5,03.7,0000.0,0000.69,0000.51,0000.46
